Year,Month,Day,Hour,Minute,Value (Times are PST for temperature in C)
2010,08,14,00,00,18.40
2010,08,14,00,01,18.40
2010,08,14,00,02,18.40
2010,08,14,00,03,18.40
2010,08,14,00,04,18.30
2010,08,14,00,05,18.30
2010,08,14,00,06,18.30
2010,08,14,00,07,18.30
2010,08,14,00,08,18.30
2010,08,14,00,09,18.20
2010,08,14,00,10,18.20
2010,08,14,00,11,18.20
2010,08,14,00,12,18.20
2010,08,14,00,13,18.20
2010,08,14,00,14,18.20
2010,08,14,00,15,18.20
2010,08,14,00,16,18.20
2010,08,14,00,17,18.20
2010,08,14,00,18,18.20
2010,08,14,00,19,18.20
2010,08,14,00,20,18.20
2010,08,14,00,21,18.10
2010,08,14,00,22,18.10
2010,08,14,00,23,18.10
2010,08,14,00,24,18.10
2010,08,14,00,25,18.10
2010,08,14,00,26,18.10
2010,08,14,00,27,17.90
2010,08,14,00,28,17.90
2010,08,14,00,29,17.90
2010,08,14,00,30,17.90
2010,08,14,00,31,17.90
2010,08,14,00,32,17.90
2010,08,14,00,33,17.90
2010,08,14,00,34,17.90
2010,08,14,00,35,17.90
2010,08,14,00,36,17.90
2010,08,14,00,37,17.90
2010,08,14,00,38,17.90
2010,08,14,00,39,17.80
2010,08,14,00,40,17.80
2010,08,14,00,41,17.70
2010,08,14,00,42,17.70
2010,08,14,00,43,17.70
2010,08,14,00,44,17.60
2010,08,14,00,45,17.60
2010,08,14,00,46,17.60
2010,08,14,00,47,17.60
2010,08,14,00,48,17.50
2010,08,14,00,49,17.50
2010,08,14,00,50,17.50
2010,08,14,00,51,17.50
2010,08,14,00,52,17.50
2010,08,14,00,53,17.50
2010,08,14,00,54,17.50
2010,08,14,00,55,17.40
2010,08,14,00,56,17.40
2010,08,14,00,57,17.40
2010,08,14,00,58,17.40
2010,08,14,00,59,17.40
2010,08,14,01,00,17.40
2010,08,14,01,01,17.40
2010,08,14,01,02,17.30
2010,08,14,01,03,17.30
2010,08,14,01,04,17.30
2010,08,14,01,05,17.30
2010,08,14,01,06,17.30
2010,08,14,01,07,17.30
2010,08,14,01,08,17.30
2010,08,14,01,09,17.30
2010,08,14,01,10,17.30
2010,08,14,01,11,17.30
2010,08,14,01,12,17.30
2010,08,14,01,13,17.30
2010,08,14,01,14,17.30
2010,08,14,01,15,17.30
2010,08,14,01,16,17.30
2010,08,14,01,17,17.20
2010,08,14,01,18,17.20
2010,08,14,01,19,17.20
2010,08,14,01,20,17.20
2010,08,14,01,21,17.20
2010,08,14,01,22,17.10
2010,08,14,01,23,17.10
2010,08,14,01,24,17.10
2010,08,14,01,25,17.10
2010,08,14,01,26,17.10
2010,08,14,01,27,17.10
2010,08,14,01,28,17.10
2010,08,14,01,29,17.10
2010,08,14,01,30,17.10
2010,08,14,01,31,17.10
2010,08,14,01,32,17.00
2010,08,14,01,33,17.00
2010,08,14,01,34,17.00
2010,08,14,01,35,17.00
2010,08,14,01,36,17.00
2010,08,14,01,37,17.10
2010,08,14,01,38,17.10
2010,08,14,01,39,17.10
2010,08,14,01,40,17.10
2010,08,14,01,41,17.10
2010,08,14,01,42,17.10
2010,08,14,01,43,17.00
2010,08,14,01,44,17.00
2010,08,14,01,45,17.00
2010,08,14,01,46,17.00
2010,08,14,01,47,17.00
2010,08,14,01,48,17.00
2010,08,14,01,49,16.90
2010,08,14,01,50,16.90
2010,08,14,01,51,16.90
2010,08,14,01,52,16.90
2010,08,14,01,53,16.90
2010,08,14,01,54,16.90
2010,08,14,01,55,16.90
2010,08,14,01,56,16.90
2010,08,14,01,57,16.90
2010,08,14,01,58,16.90
2010,08,14,01,59,16.90
2010,08,14,02,00,16.90
2010,08,14,02,01,16.90
2010,08,14,02,02,16.90
2010,08,14,02,03,16.90
2010,08,14,02,04,16.90
2010,08,14,02,05,16.90
2010,08,14,02,06,16.90
2010,08,14,02,07,16.80
2010,08,14,02,08,16.80
2010,08,14,02,09,16.80
2010,08,14,02,10,16.80
2010,08,14,02,11,16.70
2010,08,14,02,12,16.70
2010,08,14,02,13,16.70
2010,08,14,02,14,16.70
2010,08,14,02,15,16.70
2010,08,14,02,16,16.70
2010,08,14,02,17,16.70
2010,08,14,02,18,16.70
2010,08,14,02,19,16.70
2010,08,14,02,20,16.70
2010,08,14,02,21,16.70
2010,08,14,02,22,16.70
2010,08,14,02,23,16.70
2010,08,14,02,24,16.70
2010,08,14,02,25,16.70
2010,08,14,02,26,16.70
2010,08,14,02,27,16.70
2010,08,14,02,28,16.70
2010,08,14,02,29,16.70
2010,08,14,02,30,16.70
2010,08,14,02,31,16.70
2010,08,14,02,32,16.70
2010,08,14,02,33,16.70
2010,08,14,02,34,16.70
2010,08,14,02,35,16.70
2010,08,14,02,36,16.70
2010,08,14,02,37,16.70
2010,08,14,02,38,16.70
2010,08,14,02,39,16.70
2010,08,14,02,40,16.70
2010,08,14,02,41,16.70
2010,08,14,02,42,16.70
2010,08,14,02,43,16.70
2010,08,14,02,44,16.70
2010,08,14,02,45,16.70
2010,08,14,02,46,16.70
2010,08,14,02,47,16.70
2010,08,14,02,48,16.70
2010,08,14,02,49,16.70
2010,08,14,02,50,16.70
2010,08,14,02,51,16.60
2010,08,14,02,52,16.60
2010,08,14,02,53,16.60
2010,08,14,02,54,16.60
2010,08,14,02,55,16.60
2010,08,14,02,56,16.60
2010,08,14,02,57,16.60
2010,08,14,02,58,16.60
2010,08,14,02,59,16.60
2010,08,14,03,00,16.60
2010,08,14,03,01,16.50
2010,08,14,03,02,16.40
2010,08,14,03,03,16.40
2010,08,14,03,04,16.40
2010,08,14,03,05,16.40
2010,08,14,03,06,16.40
2010,08,14,03,07,16.40
2010,08,14,03,08,16.40
2010,08,14,03,09,16.40
2010,08,14,03,10,16.40
2010,08,14,03,11,16.40
2010,08,14,03,12,16.40
2010,08,14,03,13,16.40
2010,08,14,03,14,16.40
2010,08,14,03,15,16.40
2010,08,14,03,16,16.40
2010,08,14,03,17,16.40
2010,08,14,03,18,16.40
2010,08,14,03,19,16.30
2010,08,14,03,20,16.30
2010,08,14,03,21,16.20
2010,08,14,03,22,16.20
2010,08,14,03,23,16.20
2010,08,14,03,24,16.10
2010,08,14,03,25,16.10
2010,08,14,03,26,16.10
2010,08,14,03,27,16.10
2010,08,14,03,28,16.10
2010,08,14,03,29,16.10
2010,08,14,03,30,16.10
2010,08,14,03,31,16.10
2010,08,14,03,32,16.10
2010,08,14,03,33,16.10
2010,08,14,03,34,16.10
2010,08,14,03,35,16.10
2010,08,14,03,36,16.10
2010,08,14,03,37,16.10
2010,08,14,03,38,16.10
2010,08,14,03,39,16.10
2010,08,14,03,40,16.10
2010,08,14,03,41,16.00
2010,08,14,03,42,16.00
2010,08,14,03,43,16.10
2010,08,14,03,44,16.10
2010,08,14,03,45,16.10
2010,08,14,03,46,16.10
2010,08,14,03,47,16.10
2010,08,14,03,48,16.10
2010,08,14,03,49,16.10
2010,08,14,03,50,16.10
2010,08,14,03,51,16.10
2010,08,14,03,52,16.10
2010,08,14,03,53,16.10
2010,08,14,03,54,16.10
2010,08,14,03,55,16.10
2010,08,14,03,56,16.10
2010,08,14,03,57,16.00
2010,08,14,03,58,16.10
2010,08,14,03,59,16.10
2010,08,14,04,00,16.10
2010,08,14,04,01,16.10
2010,08,14,04,02,16.10
2010,08,14,04,03,16.10
2010,08,14,04,04,16.10
2010,08,14,04,05,16.10
2010,08,14,04,06,16.10
2010,08,14,04,07,16.10
2010,08,14,04,08,16.10
2010,08,14,04,09,15.90
2010,08,14,04,10,15.90
2010,08,14,04,11,15.90
2010,08,14,04,12,15.90
2010,08,14,04,13,15.80
2010,08,14,04,14,15.80
2010,08,14,04,15,15.80
2010,08,14,04,16,15.80
2010,08,14,04,17,15.80
2010,08,14,04,18,15.70
2010,08,14,04,19,15.70
2010,08,14,04,20,15.70
2010,08,14,04,21,15.70
2010,08,14,04,22,15.70
2010,08,14,04,23,15.70
2010,08,14,04,24,15.70
2010,08,14,04,25,15.70
2010,08,14,04,26,15.70
2010,08,14,04,27,15.70
2010,08,14,04,28,15.70
2010,08,14,04,29,15.70
2010,08,14,04,30,15.60
2010,08,14,04,31,15.60
2010,08,14,04,32,15.60
2010,08,14,04,33,15.60
2010,08,14,04,34,15.60
2010,08,14,04,35,15.60
2010,08,14,04,36,15.60
2010,08,14,04,37,15.60
2010,08,14,04,38,15.50
2010,08,14,04,39,15.50
2010,08,14,04,40,15.50
2010,08,14,04,41,15.50
2010,08,14,04,42,15.50
2010,08,14,04,43,15.50
2010,08,14,04,44,15.40
2010,08,14,04,45,15.40
2010,08,14,04,46,15.40
2010,08,14,04,47,15.40
2010,08,14,04,48,15.40
2010,08,14,04,49,15.50
2010,08,14,04,50,15.50
2010,08,14,04,51,15.50
2010,08,14,04,52,15.50
2010,08,14,04,53,15.50
2010,08,14,04,54,15.50
2010,08,14,04,55,15.50
2010,08,14,04,56,15.50
2010,08,14,04,57,15.50
2010,08,14,04,58,15.50
2010,08,14,04,59,15.50
2010,08,14,05,00,15.50
2010,08,14,05,01,15.50
2010,08,14,05,02,15.40
2010,08,14,05,03,15.40
2010,08,14,05,04,15.40
2010,08,14,05,05,15.40
2010,08,14,05,06,15.40
2010,08,14,05,07,15.40
2010,08,14,05,08,15.40
2010,08,14,05,09,15.40
2010,08,14,05,10,15.40
2010,08,14,05,11,15.40
2010,08,14,05,12,15.40
2010,08,14,05,13,15.40
2010,08,14,05,14,15.40
2010,08,14,05,15,15.40
2010,08,14,05,16,15.40
2010,08,14,05,17,15.40
2010,08,14,05,18,15.40
2010,08,14,05,19,15.40
2010,08,14,05,20,15.40
2010,08,14,05,21,15.40
2010,08,14,05,22,15.40
2010,08,14,05,23,15.50
2010,08,14,05,24,15.50
2010,08,14,05,25,15.50
2010,08,14,05,26,15.50
2010,08,14,05,27,15.50
2010,08,14,05,28,15.50
2010,08,14,05,29,15.50
2010,08,14,05,30,15.50
2010,08,14,05,31,15.50
2010,08,14,05,32,15.50
2010,08,14,05,33,15.50
2010,08,14,05,34,15.50
2010,08,14,05,35,15.50
2010,08,14,05,36,15.50
2010,08,14,05,37,15.50
2010,08,14,05,38,15.50
2010,08,14,05,39,15.50
2010,08,14,05,40,15.50
2010,08,14,05,41,15.50
2010,08,14,05,42,15.50
2010,08,14,05,43,15.50
2010,08,14,05,44,15.50
2010,08,14,05,45,15.50
2010,08,14,05,46,15.50
2010,08,14,05,47,15.50
2010,08,14,05,48,15.50
2010,08,14,05,49,15.50
2010,08,14,05,50,15.50
2010,08,14,05,51,15.50
2010,08,14,05,52,15.50
2010,08,14,05,53,15.50
2010,08,14,05,54,15.50
2010,08,14,05,55,15.50
2010,08,14,05,56,15.50
2010,08,14,05,57,15.50
2010,08,14,05,58,15.50
2010,08,14,05,59,15.50
2010,08,14,06,00,15.50
2010,08,14,06,01,15.50
2010,08,14,06,02,15.50
2010,08,14,06,03,15.50
2010,08,14,06,04,15.50
2010,08,14,06,05,15.50
2010,08,14,06,06,15.50
2010,08,14,06,07,15.50
2010,08,14,06,08,15.50
2010,08,14,06,09,15.50
2010,08,14,06,10,15.50
2010,08,14,06,11,15.50
2010,08,14,06,12,15.50
2010,08,14,06,13,15.50
2010,08,14,06,14,15.50
2010,08,14,06,15,15.50
2010,08,14,06,16,15.50
2010,08,14,06,17,15.50
2010,08,14,06,18,15.50
2010,08,14,06,19,15.50
2010,08,14,06,20,15.50
2010,08,14,06,21,15.50
2010,08,14,06,22,15.50
2010,08,14,06,23,15.40
2010,08,14,06,24,15.50
2010,08,14,06,25,15.50
2010,08,14,06,26,15.50
2010,08,14,06,27,15.50
2010,08,14,06,28,15.50
2010,08,14,06,29,15.60
2010,08,14,06,30,15.60
2010,08,14,06,31,15.60
2010,08,14,06,32,15.60
2010,08,14,06,33,15.70
2010,08,14,06,34,15.80
2010,08,14,06,35,15.80
2010,08,14,06,36,15.80
2010,08,14,06,37,15.80
2010,08,14,06,38,15.80
2010,08,14,06,39,15.80
2010,08,14,06,40,15.80
2010,08,14,06,41,15.90
2010,08,14,06,42,15.90
2010,08,14,06,43,16.00
2010,08,14,06,44,16.10
2010,08,14,06,45,16.10
2010,08,14,06,46,16.10
2010,08,14,06,47,16.20
2010,08,14,06,48,16.20
2010,08,14,06,49,16.20
2010,08,14,06,50,16.20
2010,08,14,06,51,16.20
2010,08,14,06,52,16.10
2010,08,14,06,53,16.10
2010,08,14,06,54,16.10
2010,08,14,06,55,16.10
2010,08,14,06,56,16.20
2010,08,14,06,57,16.20
2010,08,14,06,58,16.20
2010,08,14,06,59,16.20
2010,08,14,07,00,16.20
2010,08,14,07,01,16.30
2010,08,14,07,02,16.30
2010,08,14,07,03,16.30
2010,08,14,07,04,16.30
2010,08,14,07,05,16.30
2010,08,14,07,06,16.30
2010,08,14,07,07,16.40
2010,08,14,07,08,16.40
2010,08,14,07,09,16.40
2010,08,14,07,10,16.40
2010,08,14,07,11,16.40
2010,08,14,07,12,16.50
2010,08,14,07,13,16.60
2010,08,14,07,14,16.60
2010,08,14,07,15,16.60
2010,08,14,07,16,16.70
2010,08,14,07,17,16.70
2010,08,14,07,18,16.80
2010,08,14,07,19,16.90
2010,08,14,07,20,16.90
2010,08,14,07,21,17.00
2010,08,14,07,22,17.00
2010,08,14,07,23,17.10
2010,08,14,07,24,17.10
2010,08,14,07,25,17.20
2010,08,14,07,26,17.30
2010,08,14,07,27,17.30
2010,08,14,07,28,17.30
2010,08,14,07,29,17.30
2010,08,14,07,30,17.40
2010,08,14,07,31,17.50
2010,08,14,07,32,17.50
2010,08,14,07,33,17.70
2010,08,14,07,34,17.70
2010,08,14,07,35,17.80
2010,08,14,07,36,17.90
2010,08,14,07,37,17.90
2010,08,14,07,38,17.90
2010,08,14,07,39,17.90
2010,08,14,07,40,18.00
2010,08,14,07,41,18.10
2010,08,14,07,42,18.10
2010,08,14,07,43,18.10
2010,08,14,07,44,18.20
2010,08,14,07,45,18.20
2010,08,14,07,46,18.30
2010,08,14,07,47,18.40
2010,08,14,07,48,18.40
2010,08,14,07,49,18.50
2010,08,14,07,50,18.60
2010,08,14,07,51,18.70
2010,08,14,07,52,18.80
2010,08,14,07,53,18.90
2010,08,14,07,54,18.90
2010,08,14,07,55,18.90
2010,08,14,07,56,18.90
2010,08,14,07,57,19.00
2010,08,14,07,58,19.10
2010,08,14,07,59,19.10
2010,08,14,08,00,19.20
2010,08,14,08,01,19.40
2010,08,14,08,02,19.50
2010,08,14,08,03,19.60
2010,08,14,08,04,19.60
2010,08,14,08,05,19.70
2010,08,14,08,06,19.90
2010,08,14,08,07,20.10
2010,08,14,08,08,20.20
2010,08,14,08,09,20.30
2010,08,14,08,10,20.40
2010,08,14,08,11,20.50
2010,08,14,08,12,20.70
2010,08,14,08,13,20.90
2010,08,14,08,14,21.10
2010,08,14,08,15,21.30
2010,08,14,08,16,21.50
2010,08,14,08,17,21.60
2010,08,14,08,18,21.80
2010,08,14,08,19,21.90
2010,08,14,08,20,22.00
2010,08,14,08,21,22.10
2010,08,14,08,22,22.20
2010,08,14,08,23,22.30
2010,08,14,08,24,22.30
2010,08,14,08,25,22.40
2010,08,14,08,26,22.40
2010,08,14,08,27,22.50
2010,08,14,08,28,22.50
2010,08,14,08,29,22.50
2010,08,14,08,30,22.60
2010,08,14,08,31,22.70
2010,08,14,08,32,22.80
2010,08,14,08,33,22.90
2010,08,14,08,34,22.70
2010,08,14,08,35,22.50
2010,08,14,08,36,22.30
2010,08,14,08,37,22.00
2010,08,14,08,38,21.80
2010,08,14,08,39,21.70
2010,08,14,08,40,21.60
2010,08,14,08,41,21.60
2010,08,14,08,42,21.60
2010,08,14,08,43,21.60
2010,08,14,08,44,21.70
2010,08,14,08,45,21.80
2010,08,14,08,46,21.90
2010,08,14,08,47,22.10
2010,08,14,08,48,22.20
2010,08,14,08,49,22.40
2010,08,14,08,50,22.60
2010,08,14,08,51,22.80
2010,08,14,08,52,22.90
2010,08,14,08,53,23.10
2010,08,14,08,54,23.30
2010,08,14,08,55,23.50
2010,08,14,08,56,23.70
2010,08,14,08,57,23.90
2010,08,14,08,58,24.10
2010,08,14,08,59,24.30
2010,08,14,09,00,24.50
2010,08,14,09,01,24.80
2010,08,14,09,02,25.00
2010,08,14,09,03,25.20
2010,08,14,09,04,25.40
2010,08,14,09,05,25.60
2010,08,14,09,06,25.70
2010,08,14,09,07,25.90
2010,08,14,09,08,25.90
2010,08,14,09,09,26.10
2010,08,14,09,10,26.30
2010,08,14,09,11,26.40
2010,08,14,09,12,26.50
2010,08,14,09,13,26.60
2010,08,14,09,14,26.80
2010,08,14,09,15,26.90
2010,08,14,09,16,27.00
2010,08,14,09,17,27.10
2010,08,14,09,18,27.10
2010,08,14,09,19,27.20
2010,08,14,09,20,27.30
2010,08,14,09,21,27.30
2010,08,14,09,22,27.30
2010,08,14,09,23,27.30
2010,08,14,09,24,27.30
2010,08,14,09,25,27.30
2010,08,14,09,26,27.30
2010,08,14,09,27,27.30
2010,08,14,09,28,27.40
2010,08,14,09,29,27.40
2010,08,14,09,30,27.40
2010,08,14,09,31,27.40
2010,08,14,09,32,27.40
2010,08,14,09,33,27.40
2010,08,14,09,34,27.40
2010,08,14,09,35,27.40
2010,08,14,09,36,27.50
2010,08,14,09,37,27.60
2010,08,14,09,38,27.60
2010,08,14,09,39,27.60
2010,08,14,09,40,27.60
2010,08,14,09,41,27.60
2010,08,14,09,42,27.60
2010,08,14,09,43,27.70
2010,08,14,09,44,27.70
2010,08,14,09,45,27.70
2010,08,14,09,46,27.80
2010,08,14,09,47,27.90
2010,08,14,09,48,27.90
2010,08,14,09,49,27.90
2010,08,14,09,50,28.00
2010,08,14,09,51,28.00
2010,08,14,09,52,28.00
2010,08,14,09,53,28.00
2010,08,14,09,54,28.00
2010,08,14,09,55,28.00
2010,08,14,09,56,28.10
2010,08,14,09,57,28.10
2010,08,14,09,58,28.10
2010,08,14,09,59,28.20
2010,08,14,10,00,28.20
2010,08,14,10,01,28.30
2010,08,14,10,02,28.30
2010,08,14,10,03,28.30
2010,08,14,10,04,28.40
2010,08,14,10,05,28.40
2010,08,14,10,06,28.40
2010,08,14,10,07,28.40
2010,08,14,10,08,28.40
2010,08,14,10,09,28.50
2010,08,14,10,10,28.50
2010,08,14,10,11,28.60
2010,08,14,10,12,28.60
2010,08,14,10,13,28.60
2010,08,14,10,14,28.60
2010,08,14,10,15,28.60
2010,08,14,10,16,28.50
2010,08,14,10,17,28.40
2010,08,14,10,18,28.50
2010,08,14,10,19,28.60
2010,08,14,10,20,28.60
2010,08,14,10,21,28.60
2010,08,14,10,22,28.60
2010,08,14,10,23,28.50
2010,08,14,10,24,28.60
2010,08,14,10,25,28.60
2010,08,14,10,26,28.60
2010,08,14,10,27,28.60
2010,08,14,10,28,28.60
2010,08,14,10,29,28.60
2010,08,14,10,30,28.60
2010,08,14,10,31,28.70
2010,08,14,10,32,28.70
2010,08,14,10,33,28.80
2010,08,14,10,34,28.90
2010,08,14,10,35,28.90
2010,08,14,10,36,28.90
2010,08,14,10,37,28.90
2010,08,14,10,38,28.90
2010,08,14,10,39,28.90
2010,08,14,10,40,28.90
2010,08,14,10,41,28.90
2010,08,14,10,42,28.90
2010,08,14,10,43,28.90
2010,08,14,10,44,28.90
2010,08,14,10,45,28.90
2010,08,14,10,46,28.90
2010,08,14,10,47,28.90
2010,08,14,10,48,28.90
2010,08,14,10,49,28.90
2010,08,14,10,50,28.90
2010,08,14,10,51,28.90
2010,08,14,10,52,28.90
2010,08,14,10,53,28.90
2010,08,14,10,54,28.90
2010,08,14,10,55,28.90
2010,08,14,10,56,28.90
2010,08,14,10,57,28.90
2010,08,14,10,58,28.90
2010,08,14,10,59,28.90
2010,08,14,11,00,28.90
2010,08,14,11,01,28.90
2010,08,14,11,02,28.90
2010,08,14,11,03,28.90
2010,08,14,11,04,28.90
2010,08,14,11,05,28.90
2010,08,14,11,06,28.90
2010,08,14,11,07,28.90
2010,08,14,11,08,28.90
2010,08,14,11,09,28.90
2010,08,14,11,10,28.90
2010,08,14,11,11,28.90
2010,08,14,11,12,28.90
2010,08,14,11,13,28.90
2010,08,14,11,14,28.90
2010,08,14,11,15,28.90
2010,08,14,11,16,28.90
2010,08,14,11,17,28.90
2010,08,14,11,18,28.90
2010,08,14,11,19,29.00
2010,08,14,11,20,29.10
2010,08,14,11,21,29.20
2010,08,14,11,22,29.30
2010,08,14,11,23,29.30
2010,08,14,11,24,29.30
2010,08,14,11,25,29.30
2010,08,14,11,26,29.20
2010,08,14,11,27,29.20
2010,08,14,11,28,29.20
2010,08,14,11,29,29.10
2010,08,14,11,30,29.10
2010,08,14,11,31,29.00
2010,08,14,11,32,28.90
2010,08,14,11,33,28.90
2010,08,14,11,34,28.90
2010,08,14,11,35,28.90
2010,08,14,11,36,29.00
2010,08,14,11,37,29.10
2010,08,14,11,38,29.10
2010,08,14,11,39,29.10
2010,08,14,11,40,29.10
2010,08,14,11,41,29.20
2010,08,14,11,42,29.30
2010,08,14,11,43,29.30
2010,08,14,11,44,29.30
2010,08,14,11,45,29.20
2010,08,14,11,46,29.30
2010,08,14,11,47,29.20
2010,08,14,11,48,29.30
2010,08,14,11,49,29.30
2010,08,14,11,50,29.40
2010,08,14,11,51,29.40
2010,08,14,11,52,29.40
2010,08,14,11,53,29.50
2010,08,14,11,54,29.50
2010,08,14,11,55,29.60
2010,08,14,11,56,29.60
2010,08,14,11,57,29.60
2010,08,14,11,58,29.70
2010,08,14,11,59,29.80
2010,08,14,12,00,29.70
2010,08,14,12,01,29.70
2010,08,14,12,02,29.60
2010,08,14,12,03,29.60
2010,08,14,12,04,29.50
2010,08,14,12,05,29.60
2010,08,14,12,06,29.60
2010,08,14,12,07,29.60
2010,08,14,12,08,29.60
2010,08,14,12,09,29.60
2010,08,14,12,10,29.60
2010,08,14,12,11,29.70
2010,08,14,12,12,29.70
2010,08,14,12,13,29.80
2010,08,14,12,14,29.80
2010,08,14,12,15,29.80
2010,08,14,12,16,29.70
2010,08,14,12,17,29.70
2010,08,14,12,18,29.80
2010,08,14,12,19,29.80
2010,08,14,12,20,29.80
2010,08,14,12,21,29.90
2010,08,14,12,22,29.90
2010,08,14,12,23,30.00
2010,08,14,12,24,30.10
2010,08,14,12,25,30.20
2010,08,14,12,26,30.20
2010,08,14,12,27,30.30
2010,08,14,12,28,30.30
2010,08,14,12,29,30.30
2010,08,14,12,30,30.20
2010,08,14,12,31,30.10
2010,08,14,12,32,29.90
2010,08,14,12,33,29.80
2010,08,14,12,34,29.70
2010,08,14,12,35,29.70
2010,08,14,12,36,29.70
2010,08,14,12,37,29.80
2010,08,14,12,38,29.80
2010,08,14,12,39,29.80
2010,08,14,12,40,29.90
2010,08,14,12,41,29.90
2010,08,14,12,42,29.90
2010,08,14,12,43,29.90
2010,08,14,12,44,29.90
2010,08,14,12,45,29.90
2010,08,14,12,46,29.90
2010,08,14,12,47,30.00
2010,08,14,12,48,30.10
2010,08,14,12,49,30.20
2010,08,14,12,50,30.20
2010,08,14,12,51,30.20
2010,08,14,12,52,30.20
2010,08,14,12,53,30.20
2010,08,14,12,54,30.20
2010,08,14,12,55,30.30
2010,08,14,12,56,30.30
2010,08,14,12,57,30.30
2010,08,14,12,58,30.30
2010,08,14,12,59,30.20
2010,08,14,13,00,30.10
2010,08,14,13,01,30.10
2010,08,14,13,02,30.20
2010,08,14,13,03,30.20
2010,08,14,13,04,30.20
2010,08,14,13,05,30.30
2010,08,14,13,06,30.40
2010,08,14,13,07,30.60
2010,08,14,13,08,30.60
2010,08,14,13,09,30.60
2010,08,14,13,10,30.70
2010,08,14,13,11,30.70
2010,08,14,13,12,30.70
2010,08,14,13,13,30.80
2010,08,14,13,14,30.80
2010,08,14,13,15,30.80
2010,08,14,13,16,30.80
2010,08,14,13,17,30.80
2010,08,14,13,18,30.80
2010,08,14,13,19,30.80
2010,08,14,13,20,30.80
2010,08,14,13,21,30.80
2010,08,14,13,22,30.80
2010,08,14,13,23,30.80
2010,08,14,13,24,30.80
2010,08,14,13,25,30.80
2010,08,14,13,26,30.80
2010,08,14,13,27,30.80
2010,08,14,13,28,30.80
2010,08,14,13,29,30.90
2010,08,14,13,30,30.90
2010,08,14,13,31,30.90
2010,08,14,13,32,31.00
2010,08,14,13,33,31.10
2010,08,14,13,34,31.20
2010,08,14,13,35,31.30
2010,08,14,13,36,31.40
2010,08,14,13,37,31.40
2010,08,14,13,38,31.40
2010,08,14,13,39,31.40
2010,08,14,13,40,31.40
2010,08,14,13,41,31.30
2010,08,14,13,42,31.30
2010,08,14,13,43,31.30
2010,08,14,13,44,31.40
2010,08,14,13,45,31.40
2010,08,14,13,46,31.40
2010,08,14,13,47,31.60
2010,08,14,13,48,31.60
2010,08,14,13,49,31.70
2010,08,14,13,50,31.70
2010,08,14,13,51,31.70
2010,08,14,13,52,31.70
2010,08,14,13,53,31.70
2010,08,14,13,54,31.70
2010,08,14,13,55,31.70
2010,08,14,13,56,31.70
2010,08,14,13,57,31.70
2010,08,14,13,58,31.70
2010,08,14,13,59,31.70
2010,08,14,14,00,31.70
2010,08,14,14,01,31.70
2010,08,14,14,02,31.70
2010,08,14,14,03,31.70
2010,08,14,14,04,31.60
2010,08,14,14,05,31.60
2010,08,14,14,06,31.70
2010,08,14,14,07,31.70
2010,08,14,14,08,31.70
2010,08,14,14,09,31.70
2010,08,14,14,10,31.70
2010,08,14,14,11,31.70
2010,08,14,14,12,31.80
2010,08,14,14,13,31.80
2010,08,14,14,14,31.80
2010,08,14,14,15,31.80
2010,08,14,14,16,31.90
2010,08,14,14,17,32.00
2010,08,14,14,18,32.10
2010,08,14,14,19,32.10
2010,08,14,14,20,32.10
2010,08,14,14,21,32.10
2010,08,14,14,22,32.10
2010,08,14,14,23,32.00
2010,08,14,14,24,31.90
2010,08,14,14,25,31.90
2010,08,14,14,26,31.90
2010,08,14,14,27,32.10
2010,08,14,14,28,32.10
2010,08,14,14,29,32.20
2010,08,14,14,30,32.20
2010,08,14,14,31,32.10
2010,08,14,14,32,32.10
2010,08,14,14,33,32.00
2010,08,14,14,34,32.00
2010,08,14,14,35,32.00
2010,08,14,14,36,32.10
2010,08,14,14,37,32.00
2010,08,14,14,38,31.90
2010,08,14,14,39,32.10
2010,08,14,14,40,32.10
2010,08,14,14,41,32.20
2010,08,14,14,42,32.20
2010,08,14,14,43,32.30
2010,08,14,14,44,32.30
2010,08,14,14,45,32.30
2010,08,14,14,46,32.30
2010,08,14,14,47,32.30
2010,08,14,14,48,32.30
2010,08,14,14,49,32.30
2010,08,14,14,50,32.40
2010,08,14,14,51,32.40
2010,08,14,14,52,32.40
2010,08,14,14,53,32.40
2010,08,14,14,54,32.40
2010,08,14,14,55,32.50
2010,08,14,14,56,32.50
2010,08,14,14,57,32.50
2010,08,14,14,58,32.50
2010,08,14,14,59,32.50
2010,08,14,15,00,32.50
2010,08,14,15,01,32.50
2010,08,14,15,02,32.50
2010,08,14,15,03,32.60
2010,08,14,15,04,32.80
2010,08,14,15,05,32.80
2010,08,14,15,06,32.80
2010,08,14,15,07,32.80
2010,08,14,15,08,32.80
2010,08,14,15,09,32.90
2010,08,14,15,10,32.90
2010,08,14,15,11,33.00
2010,08,14,15,12,33.00
2010,08,14,15,13,33.00
2010,08,14,15,14,33.10
2010,08,14,15,15,33.10
2010,08,14,15,16,33.10
2010,08,14,15,17,33.20
2010,08,14,15,18,33.10
2010,08,14,15,19,33.10
2010,08,14,15,20,33.00
2010,08,14,15,21,33.00
2010,08,14,15,22,33.00
2010,08,14,15,23,32.90
2010,08,14,15,24,32.90
2010,08,14,15,25,32.90
2010,08,14,15,26,32.90
2010,08,14,15,27,33.00
2010,08,14,15,28,33.10
2010,08,14,15,29,33.10
2010,08,14,15,30,33.10
2010,08,14,15,31,33.10
2010,08,14,15,32,33.10
2010,08,14,15,33,33.20
2010,08,14,15,34,33.30
2010,08,14,15,35,33.40
2010,08,14,15,36,33.50
2010,08,14,15,37,33.50
2010,08,14,15,38,33.50
2010,08,14,15,39,33.50
2010,08,14,15,40,33.50
2010,08,14,15,41,33.50
2010,08,14,15,42,33.40
2010,08,14,15,43,33.20
2010,08,14,15,44,33.10
2010,08,14,15,45,33.00
2010,08,14,15,46,33.00
2010,08,14,15,47,32.90
2010,08,14,15,48,32.90
2010,08,14,15,49,32.80
2010,08,14,15,50,32.60
2010,08,14,15,51,32.60
2010,08,14,15,52,32.60
2010,08,14,15,53,32.80
2010,08,14,15,54,32.80
2010,08,14,15,55,32.80
2010,08,14,15,56,32.90
2010,08,14,15,57,33.00
2010,08,14,15,58,33.00
2010,08,14,15,59,33.10
2010,08,14,16,00,33.10
2010,08,14,16,01,33.20
2010,08,14,16,02,33.40
2010,08,14,16,03,33.40
2010,08,14,16,04,33.40
2010,08,14,16,05,33.40
2010,08,14,16,06,33.40
2010,08,14,16,07,33.40
2010,08,14,16,08,33.40
2010,08,14,16,09,33.40
2010,08,14,16,10,33.40
2010,08,14,16,11,33.40
2010,08,14,16,12,33.40
2010,08,14,16,13,33.40
2010,08,14,16,14,33.40
2010,08,14,16,15,33.40
2010,08,14,16,16,33.30
2010,08,14,16,17,33.20
2010,08,14,16,18,33.10
2010,08,14,16,19,33.10
2010,08,14,16,20,33.10
2010,08,14,16,21,33.10
2010,08,14,16,22,33.10
2010,08,14,16,23,33.10
2010,08,14,16,24,33.10
2010,08,14,16,25,33.10
2010,08,14,16,26,33.20
2010,08,14,16,27,33.20
2010,08,14,16,28,33.30
2010,08,14,16,29,33.40
2010,08,14,16,30,33.40
2010,08,14,16,31,33.40
2010,08,14,16,32,33.50
2010,08,14,16,33,33.50
2010,08,14,16,34,33.40
2010,08,14,16,35,33.40
2010,08,14,16,36,33.40
2010,08,14,16,37,33.40
2010,08,14,16,38,33.40
2010,08,14,16,39,33.40
2010,08,14,16,40,33.40
2010,08,14,16,41,33.40
2010,08,14,16,42,33.40
2010,08,14,16,43,33.30
2010,08,14,16,44,33.20
2010,08,14,16,45,33.20
2010,08,14,16,46,33.20
2010,08,14,16,47,33.20
2010,08,14,16,48,33.20
2010,08,14,16,49,33.20
2010,08,14,16,50,33.20
2010,08,14,16,51,33.20
2010,08,14,16,52,33.20
2010,08,14,16,53,33.20
2010,08,14,16,54,33.20
2010,08,14,16,55,33.40
2010,08,14,16,56,33.40
2010,08,14,16,57,33.50
2010,08,14,16,58,33.50
2010,08,14,16,59,33.50
2010,08,14,17,00,33.50
2010,08,14,17,01,33.50
2010,08,14,17,02,33.50
2010,08,14,17,03,33.50
2010,08,14,17,04,33.40
2010,08,14,17,05,33.40
2010,08,14,17,06,33.40
2010,08,14,17,07,33.40
2010,08,14,17,08,33.40
2010,08,14,17,09,33.40
2010,08,14,17,10,33.40
2010,08,14,17,11,33.40
2010,08,14,17,12,33.50
2010,08,14,17,13,33.50
2010,08,14,17,14,33.60
2010,08,14,17,15,33.60
2010,08,14,17,16,33.60
2010,08,14,17,17,33.60
2010,08,14,17,18,33.70
2010,08,14,17,19,33.70